Temp
15 16 16 17 17 16 16 16 16 15 15 16 15 15 15 15 15 15 15 16 16 16 16 16 16 15 15 15 15 15 14 14 14 14 14 14 14 15 15 15 14 13 15
15 15 16 17 17 16 16 16 15 15 15 15 15 15 15 15 16 16 16 16 16 16 16 16 16 16 16 15 15 15 15 14 14 14 14 14 14 14 14 14 14 13 14
15 16 16 16 16 16 16 16 15 15 15 15 15 15 16 16 17 17 17 16 16 16 16 16 16 16 16 16 16 16 16 16 15 14 14 14 14 14 14 14 14 14 14
15 15 16 16 16 16 15 15 15 15 15 15 16 16 16 16 16 16 16 16 16 16 16 16 16 16 16 16 16 16 16 16 16 15 15 15 15 14 14 14 14 14 14
14 14 16 16 16 16 15 15 15 15 16 16 16 16 16 16 16 16 16 16 16 16 16 16 16 16 16 16 16 16 16 16 16 15 15 15 15 13 14 14 14 14 14
14 14 16 16 16 15 15 15 15 16 16 16 16 16 16 16 16 16 16 16 16 16 16 16 16 16 16 16 16 16 16 15 15 14 14 14 14 14 14 14 14 14 14
14 14 15 16 15 15 15 15 16 16 16 16 16 16 16 16 16 16 16 16 16 16 16 16 16 16 16 16 16 15 15 15 15 13 13 13 13 13 13 12 13 14 14
14 14 15 15 15 15 15 16 16 16 16 16 16 16 16 16 16 16 16 16 16 16 16 16 16 16 16 15 15 15 15 15 13 12 13 12 13 13 12 12 12 13 13
14 14 15 15 15 15 16 16 16 16 16 16 16 16 16 16 15 15 15 15 16 16 16 15 16 16 15 15 15 14 14 14 12 12 11 10 11 10 11 11 11 12 12
14 15 15 15 15 15 16 16 16 16 16 16 15 16 15 15 15 15 15 15 15 15 15 15 15 15 15 15 15 14 14 13 11 11 10 11 11 10 10 11 11 11 11
15 15 14 15 15 15 16 16 16 15 15 15 15 15 15 15 15 15 15 15 15 15 15 15 15 15 15 15 15 14 14 13 11 10 10 11 10 9 9 10 10 11 11
14 14 14 14 15 15 15 15 15 15 15 15 15 15 15 15 15 15 14 14 15 15 15 15 15 15 15 15 14 14 13 13 11 10 9 10 9 9 10 10 10 10 10
14 14 14 14 14 15 15 15 15 15 15 15 15 15 15 15 14 14 14 14 14 14 14 14 15 15 14 14 14 14 13 13 11 9 10 10 10 9 9 9 10 10 10
14 14 14 14 14 15 15 15 15 15 15 15 15 14 14 14 14 14 14 14 14 14 14 14 14 14 14 14 14 14 13 12 11 10 8 10 9 9 9 9 9 10 10
14 14 14 14 14 14 15 15 15 15 14 14 14 14 14 14 14 13 14 14 14 13 13 14 14 14 14 14 13 13 13 12 11 9 9 10 9 8 9 9 9 9 10
14 14 14 14 14 14 14 15 15 15 14 14 14 14 14 13 13 13 13 13 13 13 13 13 13 13 13 13 13 13 12 11 10 8 8 9 9 9 9 8 9 9 7
14 14 14 14 14 14 14 14 15 14 14 14 14 13 13 13 13 13 13 13 13 13 13 12 12 12 12 13 12 12 11 10 9 8 8 8 8 8 8 8 8 8 8
15 14 14 14 14 14 14 14 14 14 14 13 13 13 13 13 13 13 12 12 12 12 12 12 12 12 12 12 12 11 11 10 10 8 9 8 8 7 7 8 7 8 7
14 14 14 14 14 13 13 13 13 13 13 13 13 13 13 13 12 12 12 12 12 12 12 12 12 11 11 11 11 11 11 10 10 9 9 8 8 8 7 7 7 7 7
13 13 13 13 14 13 13 13 13 13 13 13 13 13 13 12 12 12 12 12 12 12 12 11 11 11 11 11 11 11 11 10 10 9 9 9 8 8 8 7 7 6 7
13 13 13 13 13 13 13 13 13 13 13 13 12 12 12 12 12 11 11 11 11 11 11 11 11 11 11 11 10 10 11 11 10 10 10 10 9 8 8 8 8 9 8
14 13 14 13 13 13 13 13 12 13 12 12 12 12 12 11 11 11 11 11 11 11 11 10 10 10 9 10 9 8 10 10 8 8 9 9 8 8 7 8 8 8 8
15 15 13 13 13 13 13 12 12 12 12 11 11 11 11 11 11 11 11 11 11 10 10 10 10 10 9 8 9 8 9 10 7 8 8 8 8 7 7 7 8 8 9
14 13 13 13 13 13 12 12 12 12 11 11 11 11 11 10 11 10 10 10 10 10 10 10 10 9 9 8 8 7 7 6 7 8 7 7 6 6 6 6 7 8 8
13 14 14 13 13 13 12 11 11 10 10 11 10 10 10 10 10 10 10 10 10 10 10 9 9 9 9 8 7 7 5 5 4 5 6 7 6 6 5 5 5 7 7
12 13 13 13 12 12 11 11 10 10 10 10 10 10 10 9 9 9 9 9 9 9 9 9 9 8 8 8 7 7 6 5 5 5 5 6 6 5 5 5 7 5 6
Height
1546 1547 1550 1551 1553 1554 1555 1556 1557 1558 1558 1558 1558 1557 1556 1555 1554 1554 1553 1552 1551 1550 1549 1548 1546 1545 1544 1542 1541 1539 1538 1537 1536 1535 1533 1532 1531 1530 1529 1528 1528 1528 1526
1544 1547 1549 1552 1553 1555 1556 1557 1558 1558 1558 1558 1558 1557 1557 1556 1555 1554 1553 1552 1551 1549 1548 1547 1546 1544 1543 1541 1540 1539 1537 1536 1534 1533 1532 1532 1531 1530 1529 1528 1527 1527 1526
1544 1547 1550 1552 1554 1555 1557 1558 1558 1558 1559 1558 1558 1557 1556 1556 1554 1553 1552 1552 1550 1549 1547 1545 1544 1543 1541 1540 1538 1537 1535 1534 1533 1532 1531 1531 1531 1528 1528 1527 1526 1525 1525
1545 1548 1550 1552 1554 1556 1557 1557 1558 1558 1558 1558 1558 1557 1556 1555 1554 1553 1552 1551 1549 1548 1546 1545 1543 1541 1540 1538 1536 1535 1533 1532 1531 1530 1529 1528 1528 1526 1526 1525 1524 1523 1523
1546 1549 1550 1552 1555 1556 1557 1558 1558 1558 1558 1558 1557 1557 1556 1555 1554 1553 1552 1550 1549 1547 1546 1544 1542 1540 1538 1536 1534 1533 1531 1529 1528 1527 1526 1525 1524 1524 1523 1522 1522 1521 1520
1546 1549 1551 1553 1555 1557 1557 1558 1558 1558 1558 1558 1557 1557 1556 1555 1554 1553 1551 1550 1548 1546 1545 1543 1541 1539 1537 1535 1533 1531 1529 1527 1526 1525 1523 1522 1522 1521 1520 1520 1519 1518 1518
1546 1549 1551 1554 1555 1556 1557 1558 1558 1558 1558 1558 1557 1557 1556 1555 1554 1552 1551 1550 1548 1546 1545 1543 1540 1538 1536 1533 1531 1529 1527 1525 1524 1523 1522 1521 1520 1518 1518 1517 1516 1516 1515
1547 1549 1551 1554 1556 1556 1557 1558 1558 1558 1558 1558 1557 1556 1556 1555 1554 1553 1551 1550 1548 1546 1544 1542 1539 1537 1534 1532 1530 1528 1526 1524 1523 1522 1521 1520 1519 1517 1517 1516 1515 1514 1513
1546 1550 1551 1553 1555 1556 1557 1558 1558 1558 1558 1558 1557 1556 1556 1555 1554 1553 1551 1550 1548 1546 1544 1541 1538 1536 1534 1531 1529 1527 1526 1524 1522 1521 1520 1520 1518 1517 1516 1514 1513 1512 1511
1546 1549 1551 1553 1554 1556 1557 1557 1558 1558 1558 1557 1557 1556 1556 1555 1554 1553 1551 1549 1548 1546 1543 1541 1538 1536 1533 1531 1529 1527 1525 1523 1523 1521 1520 1519 1518 1518 1515 1513 1512 1510 1510
1546 1549 1550 1552 1554 1556 1557 1557 1558 1558 1558 1557 1557 1557 1556 1555 1554 1553 1552 1550 1548 1545 1543 1540 1538 1536 1534 1531 1529 1527 1525 1524 1523 1521 1521 1519 1517 1517 1515 1512 1511 1509 1508
1544 1547 1549 1552 1554 1555 1556 1557 1558 1558 1558 1557 1557 1557 1556 1556 1554 1553 1552 1550 1547 1545 1543 1540 1538 1536 1534 1531 1529 1527 1525 1524 1522 1521 1520 1518 1517 1517 1514 1512 1510 1508 1507
1543 1546 1549 1551 1553 1555 1556 1557 1558 1558 1557 1557 1557 1557 1556 1556 1554 1553 1552 1550 1547 1545 1543 1541 1538 1536 1533 1531 1529 1526 1525 1524 1523 1522 1520 1518 1517 1517 1515 1512 1509 1508 1506
1542 1546 1548 1550 1553 1554 1555 1556 1557 1558 1557 1557 1557 1557 1556 1556 1555 1554 1552 1550 1548 1546 1544 1541 1539 1537 1534 1531 1528 1526 1525 1524 1523 1522 1521 1519 1518 1517 1515 1512 1509 1507 1506
1541 1544 1547 1550 1552 1553 1555 1555 1556 1557 1557 1557 1557 1556 1556 1556 1555 1554 1552 1550 1548 1546 1544 1542 1540 1537 1535 1532 1529 1528 1526 1524 1523 1522 1521 1519 1517 1516 1514 1512 1509 1507 1505
1541 1543 1546 1549 1551 1553 1555 1555 1556 1556 1557 1557 1556 1556 1556 1555 1554 1553 1552 1550 1549 1546 1544 1542 1540 1538 1535 1532 1530 1528 1526 1525 1524 1523 1521 1519 1517 1515 1513 1511 1508 1506 1505
1541 1544 1546 1547 1550 1552 1553 1555 1555 1555 1556 1556 1555 1555 1555 1555 1554 1552 1551 1550 1549 1547 1545 1543 1541 1538 1536 1533 1531 1528 1526 1525 1524 1523 1522 1520 1518 1514 1513 1511 1508 1506 1505
1541 1544 1546 1546 1549 1551 1552 1554 1554 1554 1555 1555 1554 1554 1554 1554 1553 1552 1551 1550 1548 1547 1545 1543 1541 1539 1536 1533 1531 1529 1526 1524 1523 1522 1521 1519 1517 1515 1513 1510 1508 1506 1504
1537 1541 1544 1545 1547 1550 1551 1552 1553 1553 1554 1554 1553 1553 1553 1553 1552 1551 1550 1549 1548 1546 1545 1543 1540 1538 1536 1533 1531 1528 1525 1524 1522 1521 1520 1518 1515 1514 1512 1510 1507 1505 1503
1533 1537 1541 1544 1546 1548 1550 1551 1551 1551 1552 1552 1552 1552 1551 1551 1551 1551 1550 1549 1547 1546 1544 1542 1540 1538 1535 1533 1530 1527 1524 1522 1520 1519 1518 1515 1514 1512 1510 1509 1506 1504 1500
1531 1536 1538 1542 1545 1547 1548 1549 1550 1550 1550 1551 1551 1551 1550 1549 1550 1549 1549 1548 1547 1545 1543 1541 1539 1537 1535 1532 1529 1527 1523 1521 1519 1518 1515 1513 1512 1511 1509 1507 1504 1502 1499
1525 1531 1534 1539 1543 1546 1546 1547 1548 1548 1549 1550 1549 1549 1548 1548 1548 1548 1548 1547 1545 1544 1542 1540 1538 1536 1533 1531 1529 1526 1524 1523 1520 1518 1514 1512 1511 1510 1508 1505 1503 1500 1497
1521 1528 1533 1536 1539 1543 1543 1545 1547 1546 1548 1547 1547 1547 1547 1547 1547 1547 1546 1545 1544 1542 1541 1539 1537 1535 1533 1531 1529 1529 1526 1523 1520 1516 1514 1511 1510 1508 1506 1503 1500 1497 1494
1523 1526 1528 1532 1537 1541 1543 1544 1545 1545 1546 1545 1545 1546 1545 1546 1546 1545 1544 1543 1542 1540 1539 1537 1535 1533 1532 1530 1528 1526 1525 1524 1521 1515 1513 1511 1508 1505 1503 1500 1497 1494 1492
1518 1525 1527 1532 1536 1539 1541 1541 1542 1544 1544 1543 1543 1544 1544 1545 1545 1544 1544 1542 1540 1538 1536 1535 1534 1532 1530 1528 1526 1525 1523 1520 1519 1517 1509 1508 1506 1503 1500 1496 1494 1491 1489
1520 1523 1526 1529 1533 1536 1538 1538 1540 1542 1542 1540 1541 1543 1542 1544 1544 1543 1542 1540 1538 1536 1534 1532 1531 1530 1528 1526 1524 1522 1520 1519 1517 1515 1510 1505 1502 1498 1496 1492 1489 1488 1485
Wind_Speed
19 20 16 13 14 14 12 12 10 9 8 8 7 7 7 9 6 5 5 6 5 5 6 6 6 6 7 8 7 6 6 6 7 9 9 8 7 7 7 7 7 6 6
23 21 17 15 15 13 12 11 9 8 7 7 6 4 3 3 5 6 6 6 5 6 6 7 7 8 9 9 10 10 11 11 10 9 9 10 11 9 9 8 8 7 8
23 22 18 16 15 13 12 10 9 6 5 3 1 1 2 3 4 5 6 7 7 7 8 8 8 9 10 11 11 12 13 14 14 14 14 10 8 13 11 11 10 8 10
22 20 19 17 14 13 11 9 7 4 3 3 3 3 3 4 5 6 7 8 8 8 9 9 9 10 10 10 11 12 13 13 13 14 14 15 15 16 14 13 11 11 12
20 19 19 17 14 13 10 8 4 3 4 4 4 4 5 6 7 8 8 8 9 10 10 11 11 10 11 10 11 11 11 11 12 12 13 15 15 14 15 16 15 15 15
21 19 19 16 14 12 10 6 4 4 4 4 5 5 5 6 7 8 9 11 12 12 12 12 12 12 12 12 12 12 12 11 11 10 11 11 11 13 14 15 17 18 18
21 20 19 15 14 11 7 5 4 5 4 5 5 5 6 6 8 9 10 12 12 13 13 13 13 13 13 13 13 13 12 12 10 10 10 10 11 11 10 11 13 16 17
21 20 19 16 13 9 6 5 5 5 5 5 5 6 6 7 8 10 11 12 13 13 14 14 15 15 15 15 15 15 14 13 10 9 10 9 10 9 8 9 10 9 10
21 20 19 16 13 9 7 5 5 4 5 5 5 6 7 8 9 10 11 12 14 14 15 16 17 17 16 17 16 15 15 14 11 10 9 8 7 9 5 6 8 6 7
22 21 20 17 12 9 7 6 5 4 5 5 6 7 7 8 9 11 11 13 14 15 16 17 17 18 18 18 16 15 13 12 10 10 8 8 6 6 8 10 10 10 9
24 23 21 16 13 10 7 6 5 5 5 5 6 7 7 8 9 10 12 13 14 16 16 17 17 18 18 17 16 14 13 11 9 9 8 9 8 5 8 9 9 9 10
27 23 20 16 13 10 8 6 5 5 5 5 6 6 7 8 9 10 12 13 15 16 16 17 18 18 18 18 16 13 11 10 8 8 7 8 7 7 8 10 11 10 9
26 24 20 16 13 10 8 7 5 4 4 5 6 6 6 7 9 10 12 13 14 15 16 17 18 19 20 19 17 15 12 10 8 6 7 6 6 6 8 10 13 12 11
26 23 20 16 14 10 8 7 5 4 4 5 5 5 6 6 8 9 11 13 14 15 16 17 18 18 19 20 19 15 12 8 6 5 6 6 5 5 7 10 14 15 10
26 23 20 17 14 10 8 7 5 3 4 4 4 4 4 5 7 9 10 12 14 14 15 16 17 19 20 20 19 15 11 8 6 5 4 5 3 6 10 13 14 13 9
23 22 20 17 13 10 8 6 4 3 3 3 3 3 3 4 6 8 10 11 13 13 14 16 17 19 20 20 18 15 11 8 6 5 3 5 6 8 10 13 12 11 7
21 20 20 17 13 10 8 6 4 3 2 1 1 2 3 5 6 8 9 10 11 12 13 14 15 17 17 17 16 14 11 8 5 5 5 4 6 10 11 11 12 13 13
21 20 17 13 12 10 8 7 4 2 1 1 1 2 3 5 6 7 8 10 11 11 13 15 16 16 16 17 15 13 10 8 5 5 7 7 8 7 10 12 14 14 13
26 21 17 14 12 10 9 7 4 3 2 3 3 3 4 6 7 7 7 9 10 11 13 15 17 18 17 16 15 14 10 7 6 5 9 11 11 11 10 14 15 15 16
25 21 16 13 11 10 9 7 5 4 4 5 4 4 4 6 6 6 8 9 9 12 14 16 16 17 17 16 15 14 10 8 7 5 16 12 10 11 12 14 16 15 18
23 18 13 10 10 9 9 7 6 6 5 6 5 5 5 5 5 6 8 8 10 13 15 16 17 17 17 17 15 13 12 11 7 8 11 11 10 12 14 16 19 20 19
18 16 11 12 9 10 9 8 7 7 6 6 6 6 5 5 4 5 6 8 11 13 14 16 17 17 16 17 15 11 7 7 5 15 9 12 9 13 15 17 21 20 21
16 17 17 14 9 11 10 10 9 8 8 7 7 6 5 4 4 4 5 8 11 13 15 16 17 17 16 15 15 8 7 5 17 6 13 11 10 19 15 21 23 21 22
19 18 15 14 13 13 12 11 11 9 9 7 6 6 4 3 3 4 6 9 12 14 15 16 16 15 16 14 14 13 11 11 8 11 8 13 13 15 18 18 19 21 18
17 17 13 13 13 13 15 13 12 11 8 6 5 4 3 3 4 6 8 11 13 15 15 15 14 14 15 16 14 14 11 11 11 11 19 12 18 16 18 18 19 16 17
17 15 14 12 13 15 16 14 11 9 6 4 4 4 3 4 5 8 11 13 14 14 14 14 14 15 15 16 16 15 14 11 12 14 18 22 22 18 18 20 16 16 17
Wind_Direction
158 156 158 150 144 141 134 130 122 112 104 94 84 84 89 94 86 40 359 345 335 318 299 303 300 303 308 312 317 319 327 321 318 320 322 326 326 321 317 315 320 321 320
152 159 156 151 144 140 133 126 119 110 113 115 114 97 57 2 347 346 347 345 342 335 326 316 311 305 302 299 298 300 298 299 304 303 302 318 320 312 313 307 301 296 299
148 157 155 150 143 139 133 125 117 120 115 108 90 6 358 356 1 359 358 360 354 346 337 330 326 320 315 310 304 297 291 290 294 294 297 294 284 296 303 309 299 301 301
148 149 153 148 143 138 133 127 127 114 93 79 67 48 26 18 14 12 10 2 356 353 352 351 347 341 333 325 315 308 304 302 295 292 290 288 287 289 287 286 284 283 281
148 148 152 147 143 139 131 135 124 101 92 79 59 39 28 28 22 13 10 8 10 9 5 1 358 352 346 339 331 324 319 315 311 306 299 292 288 286 282 279 279 279 277
149 151 149 147 142 136 147 139 118 98 81 67 53 45 43 31 23 17 17 14 12 13 9 6 2 356 353 346 340 335 331 327 327 323 316 308 304 295 289 284 280 276 276
149 151 147 145 145 150 145 132 109 89 74 62 55 47 38 31 26 25 22 20 18 18 11 8 5 2 1 356 351 347 345 343 344 339 339 335 327 317 311 311 294 288 281
151 148 147 151 157 148 139 124 102 86 74 63 57 49 42 39 34 29 28 29 24 18 12 11 10 6 5 2 0 360 358 355 359 352 351 352 348 348 350 334 334 328 307
153 150 152 160 156 149 142 125 106 90 76 66 58 54 49 44 40 41 36 30 23 19 16 15 13 8 7 5 3 3 5 6 12 0 8 6 4 22 341 298 313 308 321
156 158 159 167 159 154 146 128 108 90 74 62 59 61 58 52 49 43 33 29 22 20 17 15 13 10 10 6 4 5 8 11 8 9 9 7 15 3 321 317 308 303 311
163 168 170 167 161 157 145 128 110 94 77 67 66 65 61 59 50 39 32 26 21 20 18 15 13 13 10 9 6 5 5 6 7 10 10 7 19 7 343 351 344 327 312
170 171 169 166 164 157 151 136 121 101 86 81 74 64 62 56 44 35 28 22 19 18 18 16 14 13 14 11 7 7 7 4 6 7 1 360 20 360 350 342 341 337 338
171 174 170 168 166 162 157 148 133 113 100 92 83 69 60 47 36 27 20 17 16 17 18 17 16 15 13 13 11 13 7 5 5 9 357 1 21 2 346 340 343 349 343
175 176 172 171 170 168 163 157 143 124 105 93 82 71 54 39 28 18 14 12 13 16 17 18 17 17 15 15 15 10 5 5 12 24 3 1 11 345 324 329 338 339 357
178 177 176 175 173 172 173 164 155 139 117 95 76 61 48 28 16 11 9 10 11 14 16 20 17 14 16 16 15 11 9 11 13 19 18 351 337 307 321 330 337 340 348
181 180 178 176 174 181 182 172 170 152 121 92 70 45 27 11 4 3 4 6 9 12 17 20 16 13 13 12 12 11 15 12 13 29 19 346 337 333 336 339 351 8 20
182 183 178 175 180 186 187 183 187 172 135 95 42 13 2 354 352 355 358 3 6 11 17 18 12 10 9 8 6 7 10 15 21 10 356 355 346 340 343 356 2 9 11
184 183 179 182 188 189 193 196 196 188 192 260 299 328 339 340 339 348 355 356 0 9 9 5 4 6 3 2 2 359 357 359 357 346 339 334 328 335 335 342 346 349 348
188 184 185 185 194 197 203 204 206 208 239 267 279 298 324 328 332 338 347 351 356 0 360 357 356 357 359 359 357 352 343 339 334 339 337 327 320 326 327 323 334 333 335
184 182 189 186 196 207 210 216 219 232 251 263 272 283 303 312 319 332 341 347 354 354 350 351 352 350 349 352 351 350 339 326 314 310 329 321 314 321 323 325 326 321 321
190 191 181 192 199 214 220 220 231 244 253 257 261 270 287 299 318 329 338 348 350 347 346 348 347 346 346 349 352 345 339 326 305 309 332 330 317 326 322 327 331 332 331
175 178 186 194 210 218 223 230 238 240 247 249 256 264 273 298 309 327 342 345 343 343 343 342 340 341 342 347 349 347 337 313 314 308 297 318 299 321 313 321 324 323 329
172 187 191 199 216 233 237 238 240 244 244 242 252 257 270 283 304 326 332 334 338 339 336 334 335 336 336 338 344 347 334 316 320 309 309 311 296 309 302 309 316 315 318
188 191 194 207 218 233 240 241 241 244 238 247 248 251 262 275 285 311 327 333 334 332 332 331 331 333 333 334 338 332 319 302 314 319 309 313 304 309 301 306 310 312 312
191 205 202 210 227 237 242 236 235 237 244 242 230 234 242 258 292 318 327 329 331 331 330 330 331 333 331 330 327 322 313 308 293 285 304 306 306 310 304 304 309 304 304
190 186 197 215 226 231 229 226 222 230 238 211 197 220 220 281 308 320 323 328 330 330 329 327 327 327 326 324 323 319 312 298 293 287 289 300 304 309 308 305 309 305 301